Location: ???????
(55.4362°N, 38.1183°E)
Time: 18:26:47
(UTC+00:00)

Cosmos 2278 Rocket - Pass Details

Date: 31 October 2021
Orbit: 841 x 845 km, 71.0° (Epoch: 28 November)

Event Time Altitude Azimuth Distance (km) Brightness Sun altitude
Rises 17:47:39 0° 319° (NW) 3,417 6.2 -33.4°
Reaches altitude 10° 17:50:46 10° 303° (WNW) 2,476 5.4 -33.8°
Maximum altitude 17:54:37 19° 260° (W) 1,911 4.5 -34.3°
Enters shadow 17:57:23 14° 226° (SW) 2,215 4.5 -34.7°
